Regional Weather Roundup
Issued by NWS Charleston, SC

Current Version | Previous Version | Graphics & Text | Print | Product List | Glossary On
Versions: 1 2 3 4 5 6 7 8 9 10 11 12 13 14 15 16 17 18 19 20 21 22 23 24 25 26 27 28 29 30 31 32 33 34 35 36 37 38 39 40 41 42 43 44 45 46 47 48 49 50
290
ASUS42 KCHS 291629
RWRCHS

REGIONAL WEATHER ROUNDUP
NATIONAL WEATHER SERVICE CHARLESTON SC
1200 PM EDT THU SEP 29 2016

NOTE: "FAIR" INDICATES FEW OR NO CLOUDS BELOW 12,000 FEET WITH NO
SIGNIFICANT WEATHER AND/OR OBSTRUCTIONS TO VISIBILITY.

NOT ALL STATIONS ARE QUALITY CONTROLLED. USE DATA WITH CAUTION...
ESPECIALLY DEWPOINT OBSERVATIONS.

SCZ027-030-031-034>040-042>050-291700-
...SOUTHEAST SOUTH CAROLINA...

CITY           SKY/WX    TMP DP  RH WIND       PRES   REMARKS
N CHARLESTON   MOSUNNY   86  73  65 S9        29.98R HX  93
WATERFRONT PRK   N/A     81  75  82 S8        29.97R
MOUNT PLEASANT FAIR      84  75  74 S7        29.99S HX  92
JOHNS ISLAND   PTSUNNY   84  75  74 S8G15     29.99S HX  92
PINOPOLIS        N/A     82  75  78 SW5       29.92R
MONCKS CORNER  PTSUNNY   84  73  70 S7        29.98S HX  91
SUMMERVILLE    NOT AVBL
BEAUFORT MCAS  MOSUNNY   86  67  52 VRB5      29.99S
BEAUFORT ARPT  PTSUNNY   82  70  65 SW5       29.99S
HILTON HEAD IS MOSUNNY   90  72  55 SW7       30.00S HX  96
WALTERBORO     PTSUNNY   86  66  51 SW6       29.99F
ALLENDALE      PTSUNNY   81  70  69 VRB6      29.98F

...SOUTHERN MIDLANDS AND PEE DEE...

CITY           SKY/WX    TMP DP  RH WIND       PRES   REMARKS
GEORGETOWN     FAIR      84  72  65 S12G17    29.99S
KINGSTREE      PTSUNNY   82  70  65 S5        29.98R
ORANGEBURG     MOSUNNY   81  69  67 S7        29.98S
BARNWELL       NOT AVBL
AIKEN          FAIR      82  54  36 SW5       30.01F
MANNING        FAIR      81  70  69 S5        29.98S
COLUMBIA       MOSUNNY   85  66  53 SE7       29.95S
SUMTER         PTSUNNY   82  66  57 S7        29.95R
FLORENCE       MOSUNNY   76  69  79 E13       29.99R
MYRTLE BEACH   NOT AVBL
N MYRTLE BEACH MOSUNNY   83  72  69 S13       30.00R

$$

GAZ063-065-086>088-099>101-113>116-118-119-134>141-150-291700-
...SOUTHEAST GEORGIA...

CITY           SKY/WX    TMP DP  RH WIND       PRES   REMARKS
SAVANNAH ARPT  MOSUNNY   91  64  40 SW9       29.99S HX  92
HUNTER AAF     MOSUNNY   87  73  64 SW7       29.97S HX  94
FORT STEWART   MOSUNNY   86  63  46 W7        29.98S
STATESBORO     MOSUNNY   85  62  46 SW3       30.00S
SYLVANIA       NOT AVBL
CLAXTON        PTSUNNY   85  62  45 SW5       30.00S

...CSRA...CENTRAL AND FAR SOUTHEAST GEORGIA...

CITY           SKY/WX    TMP DP  RH WIND       PRES   REMARKS
THOMSON        SUNNY     87  54  32 W7        30.01F
AUGUSTA-BUSH   SUNNY     84  57  39 S7        29.97S
AUGUSTA-DANIEL SUNNY     84  51  31 W6        29.99S
SWAINSBORO     FAIR      84  55  37 SW6       30.00F
VIDALIA        MOSUNNY   84  68  58 SW5       30.00F
EASTMAN        FAIR      87  40  19 SW6       30.01F
HAZLEHURST     PTSUNNY   88  67  49 NE5       29.99F HX  90
ALMA           PTSUNNY   85  67  54 VRB3      30.00F
WAYCROSS       MOSUNNY   87  73  63 SW7       30.01S HX  94
JESUP          FAIR      86  73  66 W5        30.00F HX  93
BAXLEY         CLOUDY    84  72  65 SW5       30.00F
BRUNSWICK      SUNNY     88  72  58 CALM      30.01S HX  94
SAINT SIMONS   SUNNY     84  72  67 CALM      30.01R

$$

SCZ027-028-034-036>038-045-046-048>050-GAZ119-141-291700-
...LAKE AND SUPPLEMENTAL COASTAL OBSERVATIONS...

STATION/POSITION TIME  TEMP    WIND        PRES    WAVE   SWELL
                       AIR SEA DIR/SP/G            HT/PER HT/PER/DIR
                 (UTC) (F)     (DEG/KT/KT) (MB)    (FT/S) (FT/S/D)
WINYAH BAY       1530   81     200/ 11     1014.0S
LAKE MURRAY      1620   80     220/  3/  5 1013.9
ACE BASIN NERRS  1545   84     240/  2     1016.0R
FORT PULASKI     1600   82 81  190/  4/  7 1016.2
SAPELO ISLAND    1600   85     230/  2     1016.0

$$

ANZ835-935-AMZ111-154-330-350-352-354-370-450-454-472-291700-
...C-MAN AND BUOY OBSERVATIONS...

STATION/POSITION TIME  TEMP    WIND        PRES    WAVE   SWELL
                       AIR SEA DIR/SP/G            HT/PER HT/PER/DIR
                 (UTC) (F)     (DEG/KT/KT) (MB)    (FT/S) (FT/S/D)
BUOY 41004       1550   79 82  180/ 19/ 21 1015.1F   4/ 5   2/130/11
BUOY 41008       1550   79 82  240/  8/ 10 1016.0R   3/11   2/ 80/11
FOLLY BEACH CMAN 1600   80     210/ 10/ 11 1015.8R
CAPERS NEARSHORE 1608   81 81  210/ 12/ 14 1015.7R
FRIPP NEARSHORE  1608   85 81  240/ 10/ 12 1015.8R


STATION/POSITION TIME  TEMP    WIND        PRES    WAVE   SWELL
                       AIR SEA DIR/SP/G            HT/PER HT/PER/DIR
                 (UTC) (F)     (DEG/KT/KT) (MB)    (FT/S) (FT/S/D)
5E ST. MARYS GA  1601      83                N/A     2/12   2/110/12
FRYING PAN BUOY  1610   81 82  180/ 12/ 16 1016.5
BUOY 41025       1550   80 83   30/  4/  4 1017.0R   3/11   3/ 90/11
CAPE LOOKOUT NC  1600   80      70/  6/  6 1016.9R
BUOY 41002       1550   81 83  170/  6/  6 1018.0R   3/ 5   3/200/ 5
BUOY 41010       NOT AVBL
ST AUGUSTINE FL  1600   84 83  240/  6/  9 1017.7R


$$




USA.gov is the U.S. government's official web portal to all federal, state and local government web resources and services.